Weather History for TGPY - September, 2013

Change the Weather History Date:

Friday, September 6, 2013

  Actual Average Record
Temperature  
Mean Temperature 83 °F -  
Max Temperature 88 °F 85 °F 89 °F (2001)
Min Temperature 78 °F 76 °F 37 °F (2002)
Cooling Degree Days 18    
Growing Degree Days 33 (Base 50)    
Moisture  
Dew Point 78 °F    
Average Humidity 83    
Maximum Humidity 100    
Minimum Humidity 66    
Precipitation  
Precipitation 0.04 in - - ()
Sea Level Pressure  
Sea Level Pressure 29.93 in    
Wind  
Wind Speed 9 mph ()    
Max Wind Speed 21 mph    
Max Gust Speed 24 mph    
Visibility 7.2 miles    
Events Rain , Thunderstorm    
Averages and records for this station are not official NWS values.
T = Trace of Precipitation, MM = Missing Value Source: Averaged Metar Reports

Daily Weather History Graph

Daily Weather History Graph

Search for Another Location

Airport or City:

Trip Planner

Search our weather history database for the weather conditions in past years. The results will help you decide how hot, cold, wet, or windy it might be!

Date:

Astronomy

Sep. 06, 2013 Rise Set
Actual Time 5:56 AM AST 6:13 PM AST
Civil Twilight 5:35 AM AST 6:35 PM AST
Nautical Twilight 5:10 AM AST 7:00 PM AST
Astronomical Twilight 4:45 AM AST 7:24 PM AST
Moon 6:43 AM AST (9/6) 7:01 PM AST (9/6)
Length of Visible Light 12h 59m
Length of Day
12h 17m
New Moon, 1% of the Moon is Illuminated
Sep 6
New Moon
Sep 12
First Quarter
Sep 19
Full
Sep 26
Last Quarter
Oct 4
New

Hourly Weather History & Observations

Time (AST) Temp. Heat Index Dew Point Humidity Pressure Visibility Wind Dir Wind Speed Gust Speed Precip Events Conditions
12:00 AM 80.6 °F 87.1 °F 77.0 °F 89% 29.95 in 6.2 mi East 3.5 mph - N/A   Scattered Clouds
1:00 AM 80.6 °F 88.1 °F 78.8 °F 94% 29.92 in 3.1 mi East 11.5 mph - N/A Rain Heavy Rain Showers
1:07 AM 78.8 °F - 78.8 °F 100% 29.92 in 6.2 mi Calm Calm - N/A Rain Light Rain Showers
2:00 AM 82 °F - 77 °F 82% 29.92 in 11 mi SSE 11.5 mph - - Rain Light Rain Showers
2:00 AM 82.4 °F 90.9 °F 77.0 °F 84% 29.92 in 6.2 mi SSE 11.5 mph - N/A   Scattered Clouds
3:00 AM 82.4 °F 90.9 °F 77.0 °F 84% 29.92 in 6.2 mi SE 13.8 mph - N/A   Scattered Clouds
4:00 AM 82.4 °F 90.9 °F 77.0 °F 84% 29.92 in 6.2 mi SE 9.2 mph - N/A   Scattered Clouds
5:00 AM 81 °F - 79 °F 91% 29.91 in 11 mi SE 16.1 mph - -   Widespread Dust
5:00 AM 80.6 °F 88.1 °F 78.8 °F 94% 29.89 in 6.2 mi SE 16.1 mph - N/A   Partly Cloudy
6:00 AM 80.6 °F 87.1 °F 77.0 °F 89% 29.92 in 6.2 mi ESE 9.2 mph - N/A   Scattered Clouds
7:00 AM 82.4 °F 92.4 °F 78.8 °F 89% 29.95 in 6.2 mi South 9.2 mph 24.2 mph N/A   Scattered Clouds
8:00 AM 82 °F - 76 °F 76% 29.98 in 5 mi SSE 12.7 mph - -  
8:00 AM 82.4 °F 89.5 °F 75.2 °F 79% 29.98 in 6.2 mi SSE 12.7 mph - N/A   Scattered Clouds
9:00 AM 84.2 °F 96.1 °F 78.8 °F 84% 29.98 in 6.2 mi SSE 15.0 mph - N/A   Mostly Cloudy
10:00 AM 86.0 °F 99.3 °F 78.8 °F 79% 29.98 in 6.2 mi SE 16.1 mph - N/A   Partly Cloudy
11:00 AM 86 °F - 76 °F 66% 29.99 in 16 mi SE 12.7 mph - -   Partly Cloudy
11:00 AM 86.0 °F 96.9 °F 77.0 °F 74% 29.98 in 6.2 mi SE 12.7 mph - N/A   Partly Cloudy
12:00 PM 87.8 °F 102.5 °F 78.8 °F 75% 29.95 in 6.2 mi South 12.7 mph - N/A   Partly Cloudy
1:00 PM 82.4 °F 90.9 °F 77.0 °F 84% 29.92 in 6.2 mi East 20.7 mph - N/A Rain Light Rain Showers
2:00 PM 84 °F - 77 °F 74% 29.90 in 12 mi SSE 6.9 mph - - Rain Light Rain Showers
2:00 PM 84.2 °F 94.1 °F 77.0 °F 79% 29.89 in 6.2 mi SSE 6.9 mph - N/A   Scattered Clouds
3:00 PM 86.0 °F 99.3 °F 78.8 °F 79% 29.89 in 6.2 mi SE 13.8 mph - N/A   Mostly Cloudy
4:00 PM 86.0 °F 96.9 °F 77.0 °F 74% 29.86 in 6.2 mi SE 13.8 mph - N/A   Mostly Cloudy
5:00 PM 86 °F - 79 °F 74% 29.88 in 12 mi SE 13.8 mph - -   Widespread Dust
5:00 PM 86.0 °F 99.3 °F 78.8 °F 79% 29.86 in 6.2 mi SE 13.8 mph - N/A   Mostly Cloudy
6:00 PM 84.2 °F 94.1 °F 77.0 °F 79% 29.89 in 6.2 mi ESE 6.9 mph - N/A   Mostly Cloudy
7:00 PM 82.4 °F 90.9 °F 77.0 °F 84% 29.92 in 6.2 mi ESE 8.1 mph - N/A   Mostly Cloudy
8:00 PM 82 °F - 78 °F 83% 29.93 in 12 mi East 8.1 mph - -   Partly Cloudy
8:00 PM 82.4 °F 90.9 °F 77.0 °F 84% 29.92 in 6.2 mi East 8.1 mph - N/A Thunderstorm Mostly Cloudy
9:00 PM 82.4 °F 90.9 °F 77.0 °F 84% 29.95 in 6.2 mi East 5.8 mph - N/A   Mostly Cloudy
10:00 PM 82.4 °F 90.9 °F 77.0 °F 84% 29.95 in 6.2 mi East 11.5 mph - N/A   Mostly Cloudy
11:00 PM 80.6 °F 87.1 °F 77.0 °F 89% 29.95 in 6.2 mi East 8.1 mph - N/A   Mostly Cloudy